YUNHAI 1-03

Satellite information

Favourite Embed

Satellite Type and Status

PAYLOADIN ORBIT

Key statistics

Satellite YUNHAI 1-03 at a glance.

Uptime

1180

Days in orbit

Revolutions

≈ 14.3

Per day

Orbit

SSO

Sun Synchronous Orbit

Inclination

98.5

Latest

Satellite identification and parameters

Extended collection of information and parameters for YUNHAI 1-03.

Object identification

Identified? True

Debris? False

Object name: YUNHAI 1-03

International designator: 2022-115A

Object number (NORAD): 53877

Object ID (CCSDS): 53877

Country: PEOPLES REPUBLIC OF CHINA (PRC)

Current information (Y/N): Y

RCS size: LARGE

Orbital parameters

Period: 100.519 minutes

Inclination: 98.547 deg

SMA: 7161.309 km

Apoapsis: 785.892 km

Periapsis: 780.457 km

RAAN: 341.9084 deg

Eccentricy: 0.00037948

Argument of periapsis: 231.2042 deg

Mean anomaly: 128.8803 deg

Mean motion: 14.32564217 rev/day

Mean motion (dot): 0.00000476 rev/day2

B* drag term: 0.00019135476 1/REarth

Two-line elements (TLE)

Creation date: Dec. 12, 2025, 10:14 a.m.

Reference frame: TEME

Reference center: EARTH

Epoch: Dec. 12, 2025, 7:02 a.m. UTC

TLE line 0: 0 YUNHAI 1-03

TLE line 1: 1 53877U 22115A 25346.29321322 .00000476 00000-0 19135-3 0 9994

TLE line 2: 2 53877 98.5470 341.9084 0003795 231.2042 128.8803 14.32564217168754

Live tracking on map

Real-time ground track for satellite YUNHAI 1-03.

In-orbit conjunctions

There are no conjunctions computed for YUNHAI 1-03, at the moment. Check back to stay up to date, as we update our databases every day.

Go to all conjunctions

Associated space launch

The Yunhai-1 satellite is designed for detecting environmental elements in the atmosphere and ocean, the space environment, disaster prevention and reduction, and scientific experimentation. It is made by the Shanghai Institute of Spaceflight Technology.

YUNHAI 1-03 was lifted into orbit during the mission ‘Long March 2D | Yunhai-1-03’, on board a Long March 2D space rocket.

The launch took place on Sept. 20, 2022, 11:15 p.m. from Launch Area 94 (SLS-2 / 603).

For more information about the launch, click the button.

Launch to space Long March 2D | Yunhai-1-03
Long March 2D | Yunhai-1-03

Agency: N/A

Status: Launch Successful

Launch date: Sept. 20, 2022, 11:15 p.m. UTC

Rocket: Long March 2D

Launch pad: Launch Area 94 (SLS-2 / 603)

Location: Jiuquan Satellite Launch Center, People's Republic of China

...

Latest news about this satellite

There are no fresh news available about this satellite. Check back as we update our databases every day.


Newsletter sign-up

Weekly statistics, charts and insights to help you stay on top of the space industry.